Year,Month,Day,Hour,Minute,Value (Times are PST for temperature in C)
2019,05,29,00,00,14.10
2019,05,29,00,01,14.00
2019,05,29,00,02,13.90
2019,05,29,00,03,13.90
2019,05,29,00,04,13.80
2019,05,29,00,05,13.80
2019,05,29,00,06,13.70
2019,05,29,00,07,13.70
2019,05,29,00,08,13.70
2019,05,29,00,09,13.70
2019,05,29,00,10,13.70
2019,05,29,00,11,13.80
2019,05,29,00,12,13.70
2019,05,29,00,13,13.80
2019,05,29,00,14,13.80
2019,05,29,00,15,13.80
2019,05,29,00,16,13.90
2019,05,29,00,17,14.00
2019,05,29,00,18,14.00
2019,05,29,00,19,14.10
2019,05,29,00,20,14.20
2019,05,29,00,21,14.20
2019,05,29,00,22,14.30
2019,05,29,00,23,14.30
2019,05,29,00,24,14.30
2019,05,29,00,25,14.30
2019,05,29,00,26,14.30
2019,05,29,00,27,14.30
2019,05,29,00,28,14.30
2019,05,29,00,29,14.30
2019,05,29,00,30,14.20
2019,05,29,00,31,14.20
2019,05,29,00,32,14.20
2019,05,29,00,33,14.10
2019,05,29,00,34,14.10
2019,05,29,00,35,14.00
2019,05,29,00,36,13.90
2019,05,29,00,37,13.80
2019,05,29,00,38,13.70
2019,05,29,00,39,13.60
2019,05,29,00,40,13.50
2019,05,29,00,41,13.40
2019,05,29,00,42,13.30
2019,05,29,00,43,13.20
2019,05,29,00,44,13.20
2019,05,29,00,45,13.10
2019,05,29,00,46,13.00
2019,05,29,00,47,13.00
2019,05,29,00,48,12.90
2019,05,29,00,49,12.90
2019,05,29,00,50,12.80
2019,05,29,00,51,12.80
2019,05,29,00,52,12.80
2019,05,29,00,53,12.80
2019,05,29,00,54,12.80
2019,05,29,00,55,12.70
2019,05,29,00,56,12.70
2019,05,29,00,57,12.70
2019,05,29,00,58,12.70
2019,05,29,00,59,12.60
2019,05,29,01,00,12.60
2019,05,29,01,01,12.60
2019,05,29,01,02,12.60
2019,05,29,01,03,12.50
2019,05,29,01,04,12.50
2019,05,29,01,05,12.50
2019,05,29,01,06,12.40
2019,05,29,01,07,12.40
2019,05,29,01,08,12.30
2019,05,29,01,09,12.30
2019,05,29,01,10,12.30
2019,05,29,01,11,12.20
2019,05,29,01,12,12.20
2019,05,29,01,13,12.20
2019,05,29,01,14,12.20
2019,05,29,01,15,12.20
2019,05,29,01,16,12.10
2019,05,29,01,17,12.10
2019,05,29,01,18,12.10
2019,05,29,01,19,12.10
2019,05,29,01,20,12.10
2019,05,29,01,21,12.10
2019,05,29,01,22,12.00
2019,05,29,01,23,12.00
2019,05,29,01,24,12.00
2019,05,29,01,25,12.00
2019,05,29,01,26,11.90
2019,05,29,01,27,11.90
2019,05,29,01,28,11.80
2019,05,29,01,29,11.80
2019,05,29,01,30,11.80
2019,05,29,01,31,11.80
2019,05,29,01,32,11.70
2019,05,29,01,33,11.70
2019,05,29,01,34,11.70
2019,05,29,01,35,11.70
2019,05,29,01,36,11.70
2019,05,29,01,37,11.60
2019,05,29,01,38,11.60
2019,05,29,01,39,11.60
2019,05,29,01,40,11.60
2019,05,29,01,41,11.60
2019,05,29,01,42,11.50
2019,05,29,01,43,11.50
2019,05,29,01,44,11.50
2019,05,29,01,45,11.50
2019,05,29,01,46,11.50
2019,05,29,01,47,11.50
2019,05,29,01,48,11.50
2019,05,29,01,49,11.50
2019,05,29,01,50,11.50
2019,05,29,01,51,11.50
2019,05,29,01,52,11.50
2019,05,29,01,53,11.40
2019,05,29,01,54,11.40
2019,05,29,01,55,11.40
2019,05,29,01,56,11.40
2019,05,29,01,57,11.40
2019,05,29,01,58,11.40
2019,05,29,01,59,11.40
2019,05,29,02,00,11.40
2019,05,29,02,01,11.40
2019,05,29,02,02,11.30
2019,05,29,02,03,11.30
2019,05,29,02,04,11.30
2019,05,29,02,05,11.30
2019,05,29,02,06,11.30
2019,05,29,02,07,11.30
2019,05,29,02,08,11.30
2019,05,29,02,09,11.30
2019,05,29,02,10,11.30
2019,05,29,02,11,11.30
2019,05,29,02,12,11.30
2019,05,29,02,13,11.30
2019,05,29,02,14,11.30
2019,05,29,02,15,11.30
2019,05,29,02,16,11.30
2019,05,29,02,17,11.30
2019,05,29,02,18,11.30
2019,05,29,02,19,11.30
2019,05,29,02,20,11.30
2019,05,29,02,21,11.30
2019,05,29,02,22,11.30
2019,05,29,02,23,11.30
2019,05,29,02,24,11.30
2019,05,29,02,25,11.30
2019,05,29,02,26,11.30
2019,05,29,02,27,11.30
2019,05,29,02,28,11.30
2019,05,29,02,29,11.30
2019,05,29,02,30,11.30
2019,05,29,02,31,11.30
2019,05,29,02,32,11.30
2019,05,29,02,33,11.30
2019,05,29,02,34,11.30
2019,05,29,02,35,11.30
2019,05,29,02,36,11.30
2019,05,29,02,37,11.30
2019,05,29,02,38,11.30
2019,05,29,02,39,11.30
2019,05,29,02,40,11.30
2019,05,29,02,41,11.20
2019,05,29,02,42,11.20
2019,05,29,02,43,11.20
2019,05,29,02,44,11.20
2019,05,29,02,45,11.10
2019,05,29,02,46,11.10
2019,05,29,02,47,11.10
2019,05,29,02,48,11.10
2019,05,29,02,49,11.10
2019,05,29,02,50,11.10
2019,05,29,02,51,11.10
2019,05,29,02,52,11.10
2019,05,29,02,53,11.10
2019,05,29,02,54,11.10
2019,05,29,02,55,11.10
2019,05,29,02,56,11.10
2019,05,29,02,57,11.10
2019,05,29,02,58,11.10
2019,05,29,02,59,11.10
2019,05,29,03,00,11.10
2019,05,29,03,01,11.00
2019,05,29,03,02,11.00
2019,05,29,03,03,11.10
2019,05,29,03,04,11.00
2019,05,29,03,05,11.00
2019,05,29,03,06,11.00
2019,05,29,03,07,11.10
2019,05,29,03,08,11.10
2019,05,29,03,09,11.10
2019,05,29,03,10,11.10
2019,05,29,03,11,11.10
2019,05,29,03,12,11.00
2019,05,29,03,13,11.00
2019,05,29,03,14,11.00
2019,05,29,03,15,11.00
2019,05,29,03,16,11.10
2019,05,29,03,17,11.10
2019,05,29,03,18,11.10
2019,05,29,03,19,11.10
2019,05,29,03,20,11.10
2019,05,29,03,21,11.10
2019,05,29,03,22,11.10
2019,05,29,03,23,11.10
2019,05,29,03,24,11.10
2019,05,29,03,25,11.10
2019,05,29,03,26,11.10
2019,05,29,03,27,11.10
2019,05,29,03,28,11.10
2019,05,29,03,29,11.10
2019,05,29,03,30,11.10
2019,05,29,03,31,11.10
2019,05,29,03,32,11.10
2019,05,29,03,33,11.10
2019,05,29,03,34,11.10
2019,05,29,03,35,11.10
2019,05,29,03,36,11.10
2019,05,29,03,37,11.10
2019,05,29,03,38,11.10
2019,05,29,03,39,11.10
2019,05,29,03,40,11.10
2019,05,29,03,41,11.10
2019,05,29,03,42,11.10
2019,05,29,03,43,11.10
2019,05,29,03,44,11.10
2019,05,29,03,45,11.10
2019,05,29,03,46,11.10
2019,05,29,03,47,11.10
2019,05,29,03,48,11.10
2019,05,29,03,49,11.10
2019,05,29,03,50,11.10
2019,05,29,03,51,11.10
2019,05,29,03,52,11.10
2019,05,29,03,53,11.10
2019,05,29,03,54,11.10
2019,05,29,03,55,11.10
2019,05,29,03,56,11.00
2019,05,29,03,57,11.00
2019,05,29,03,58,11.00
2019,05,29,03,59,11.00
2019,05,29,04,00,11.00
2019,05,29,04,01,11.00
2019,05,29,04,02,11.00
2019,05,29,04,03,11.00
2019,05,29,04,04,11.00
2019,05,29,04,05,10.90
2019,05,29,04,06,10.90
2019,05,29,04,07,10.90
2019,05,29,04,08,10.90
2019,05,29,04,09,10.90
2019,05,29,04,10,10.90
2019,05,29,04,11,10.90
2019,05,29,04,12,10.90
2019,05,29,04,13,10.90
2019,05,29,04,14,10.90
2019,05,29,04,15,10.90
2019,05,29,04,16,10.90
2019,05,29,04,17,10.90
2019,05,29,04,18,10.90
2019,05,29,04,19,10.90
2019,05,29,04,20,10.90
2019,05,29,04,21,10.80
2019,05,29,04,22,10.80
2019,05,29,04,23,10.80
2019,05,29,04,24,10.80
2019,05,29,04,25,10.80
2019,05,29,04,26,10.80
2019,05,29,04,27,10.80
2019,05,29,04,28,10.80
2019,05,29,04,29,10.80
2019,05,29,04,30,10.80
2019,05,29,04,31,10.80
2019,05,29,04,32,10.80
2019,05,29,04,33,10.80
2019,05,29,04,34,10.80
2019,05,29,04,35,10.80
2019,05,29,04,36,10.80
2019,05,29,04,37,10.80
2019,05,29,04,38,10.80
2019,05,29,04,39,10.80
2019,05,29,04,40,10.70
2019,05,29,04,41,10.70
2019,05,29,04,42,10.70
2019,05,29,04,43,10.70
2019,05,29,04,44,10.70
2019,05,29,04,45,10.70
2019,05,29,04,46,10.70
2019,05,29,04,47,10.70
2019,05,29,04,48,10.70
2019,05,29,04,49,10.70
2019,05,29,04,50,10.70
2019,05,29,04,51,10.70
2019,05,29,04,52,10.70
2019,05,29,04,53,10.70
2019,05,29,04,54,10.70
2019,05,29,04,55,10.60
2019,05,29,04,56,10.60
2019,05,29,04,57,10.60
2019,05,29,04,58,10.70
2019,05,29,04,59,10.70
2019,05,29,05,00,10.60
2019,05,29,05,01,10.60
2019,05,29,05,02,10.60
2019,05,29,05,03,10.60
2019,05,29,05,04,10.60
2019,05,29,05,05,10.60
2019,05,29,05,06,10.60
2019,05,29,05,07,10.60
2019,05,29,05,08,10.60
2019,05,29,05,09,10.60
2019,05,29,05,10,10.60
2019,05,29,05,11,10.60
2019,05,29,05,12,10.60
2019,05,29,05,13,10.60
2019,05,29,05,14,10.60
2019,05,29,05,15,10.60
2019,05,29,05,16,10.60
2019,05,29,05,17,10.60
2019,05,29,05,18,10.60
2019,05,29,05,19,10.60
2019,05,29,05,20,10.60
2019,05,29,05,21,10.50
2019,05,29,05,22,10.50
2019,05,29,05,23,10.50
2019,05,29,05,24,10.50
2019,05,29,05,25,10.50
2019,05,29,05,26,10.50
2019,05,29,05,27,10.50
2019,05,29,05,28,10.50
2019,05,29,05,29,10.50
2019,05,29,05,30,10.50
2019,05,29,05,31,10.50
2019,05,29,05,32,10.50
2019,05,29,05,33,10.50
2019,05,29,05,34,10.50
2019,05,29,05,35,10.50
2019,05,29,05,36,10.50
2019,05,29,05,37,10.50
2019,05,29,05,38,10.50
2019,05,29,05,39,10.50
2019,05,29,05,40,10.50
2019,05,29,05,41,10.50
2019,05,29,05,42,10.50
2019,05,29,05,43,10.50
2019,05,29,05,44,10.50
2019,05,29,05,45,10.50
2019,05,29,05,46,10.50
2019,05,29,05,47,10.50
2019,05,29,05,48,10.50
2019,05,29,05,49,10.50
2019,05,29,05,50,10.50
2019,05,29,05,51,10.50
2019,05,29,05,52,10.50
2019,05,29,05,53,10.50
2019,05,29,05,54,10.50
2019,05,29,05,55,10.50
2019,05,29,05,56,10.50
2019,05,29,05,57,10.50
2019,05,29,05,58,10.50
2019,05,29,05,59,10.60
2019,05,29,06,00,10.60
2019,05,29,06,01,10.60
2019,05,29,06,02,10.60
2019,05,29,06,03,10.60
2019,05,29,06,04,10.60
2019,05,29,06,05,10.60
2019,05,29,06,06,10.60
2019,05,29,06,07,10.60
2019,05,29,06,08,10.60
2019,05,29,06,09,10.60
2019,05,29,06,10,10.60
2019,05,29,06,11,10.60
2019,05,29,06,12,10.60
2019,05,29,06,13,10.60
2019,05,29,06,14,10.60
2019,05,29,06,15,10.60
2019,05,29,06,16,10.60
2019,05,29,06,17,10.60
2019,05,29,06,18,10.60
2019,05,29,06,19,10.60
2019,05,29,06,20,10.60
2019,05,29,06,21,10.60
2019,05,29,06,22,10.60
2019,05,29,06,23,10.60
2019,05,29,06,24,10.60
2019,05,29,06,25,10.60
2019,05,29,06,26,10.60
2019,05,29,06,27,10.60
2019,05,29,06,28,10.60
2019,05,29,06,29,10.60
2019,05,29,06,30,10.60
2019,05,29,06,31,10.60
2019,05,29,06,32,10.60
2019,05,29,06,33,10.60
2019,05,29,06,34,10.60
2019,05,29,06,35,10.60
2019,05,29,06,36,10.60
2019,05,29,06,37,10.60
2019,05,29,06,38,10.60
2019,05,29,06,39,10.60
2019,05,29,06,40,10.60
2019,05,29,06,41,10.60
2019,05,29,06,42,10.60
2019,05,29,06,43,10.70
2019,05,29,06,44,10.70
2019,05,29,06,45,10.70
2019,05,29,06,46,10.70
2019,05,29,06,47,10.70
2019,05,29,06,48,10.70
2019,05,29,06,49,10.80
2019,05,29,06,50,10.80
2019,05,29,06,51,10.80
2019,05,29,06,52,10.80
2019,05,29,06,53,10.80
2019,05,29,06,54,10.90
2019,05,29,06,55,10.90
2019,05,29,06,56,10.90
2019,05,29,06,57,10.90
2019,05,29,06,58,10.90
2019,05,29,06,59,10.90
2019,05,29,07,00,11.00
2019,05,29,07,01,11.00
2019,05,29,07,02,11.00
2019,05,29,07,03,11.00
2019,05,29,07,04,11.10
2019,05,29,07,05,11.10
2019,05,29,07,06,11.10
2019,05,29,07,07,11.10
2019,05,29,07,08,11.10
2019,05,29,07,09,11.10
2019,05,29,07,10,11.20
2019,05,29,07,11,11.20
2019,05,29,07,12,11.20
2019,05,29,07,13,11.20
2019,05,29,07,14,11.20
2019,05,29,07,15,11.20
2019,05,29,07,16,11.20
2019,05,29,07,17,11.30
2019,05,29,07,18,11.30
2019,05,29,07,19,11.40
2019,05,29,07,20,11.40
2019,05,29,07,21,11.50
2019,05,29,07,22,11.60
2019,05,29,07,23,11.60
2019,05,29,07,24,11.60
2019,05,29,07,25,11.70
2019,05,29,07,26,11.70
2019,05,29,07,27,11.70
2019,05,29,07,28,11.80
2019,05,29,07,29,11.80
2019,05,29,07,30,11.80
2019,05,29,07,31,11.90
2019,05,29,07,32,11.90
2019,05,29,07,33,11.90
2019,05,29,07,34,12.00
2019,05,29,07,35,12.00
2019,05,29,07,36,12.10
2019,05,29,07,37,12.10
2019,05,29,07,38,12.10
2019,05,29,07,39,12.20
2019,05,29,07,40,12.20
2019,05,29,07,41,12.20
2019,05,29,07,42,12.20
2019,05,29,07,43,12.30
2019,05,29,07,44,12.30
2019,05,29,07,45,12.40
2019,05,29,07,46,12.40
2019,05,29,07,47,12.40
2019,05,29,07,48,12.40
2019,05,29,07,49,12.50
2019,05,29,07,50,12.50
2019,05,29,07,51,12.60
2019,05,29,07,52,12.60
2019,05,29,07,53,12.60
2019,05,29,07,54,12.60
2019,05,29,07,55,12.60
2019,05,29,07,56,12.60
2019,05,29,07,57,12.70
2019,05,29,07,58,12.70
2019,05,29,07,59,12.70
2019,05,29,08,00,12.70
2019,05,29,08,01,12.70
2019,05,29,08,02,12.70
2019,05,29,08,03,12.80
2019,05,29,08,04,12.80
2019,05,29,08,05,12.90
2019,05,29,08,06,12.90
2019,05,29,08,07,12.90
2019,05,29,08,08,13.00
2019,05,29,08,09,13.00
2019,05,29,08,10,13.10
2019,05,29,08,11,13.10
2019,05,29,08,12,13.20
2019,05,29,08,13,13.20
2019,05,29,08,14,13.20
2019,05,29,08,15,13.20
2019,05,29,08,16,13.20
2019,05,29,08,17,13.30
2019,05,29,08,18,13.30
2019,05,29,08,19,13.30
2019,05,29,08,20,13.30
2019,05,29,08,21,13.30
2019,05,29,08,22,13.40
2019,05,29,08,23,13.40
2019,05,29,08,24,13.50
2019,05,29,08,25,13.60
2019,05,29,08,26,13.60
2019,05,29,08,27,13.70
2019,05,29,08,28,13.70
2019,05,29,08,29,13.70
2019,05,29,08,30,13.80
2019,05,29,08,31,13.80
2019,05,29,08,32,13.80
2019,05,29,08,33,13.80
2019,05,29,08,34,13.80
2019,05,29,08,35,13.80
2019,05,29,08,36,13.70
2019,05,29,08,37,13.80
2019,05,29,08,38,13.80
2019,05,29,08,39,13.90
2019,05,29,08,40,13.90
2019,05,29,08,41,13.90
2019,05,29,08,42,13.90
2019,05,29,08,43,13.90
2019,05,29,08,44,14.00
2019,05,29,08,45,14.00
2019,05,29,08,46,14.10
2019,05,29,08,47,14.10
2019,05,29,08,48,14.20
2019,05,29,08,49,14.20
2019,05,29,08,50,14.20
2019,05,29,08,51,14.20
2019,05,29,08,52,14.20
2019,05,29,08,53,14.30
2019,05,29,08,54,14.40
2019,05,29,08,55,14.40
2019,05,29,08,56,14.50
2019,05,29,08,57,14.60
2019,05,29,08,58,14.60
2019,05,29,08,59,14.60
2019,05,29,09,00,14.50
2019,05,29,09,01,14.50
2019,05,29,09,02,14.40
2019,05,29,09,03,14.40
2019,05,29,09,04,14.30
2019,05,29,09,05,14.30
2019,05,29,09,06,14.30
2019,05,29,09,07,14.30
2019,05,29,09,08,14.30
2019,05,29,09,09,14.30
2019,05,29,09,10,14.30
2019,05,29,09,11,14.30
2019,05,29,09,12,14.30
2019,05,29,09,13,14.30
2019,05,29,09,14,14.30
2019,05,29,09,15,14.40
2019,05,29,09,16,14.40
2019,05,29,09,17,14.60
2019,05,29,09,18,14.80
2019,05,29,09,19,14.90
2019,05,29,09,20,15.00
2019,05,29,09,21,15.00
2019,05,29,09,22,15.10
2019,05,29,09,23,15.10
2019,05,29,09,24,15.10
2019,05,29,09,25,15.10
2019,05,29,09,26,15.10
2019,05,29,09,27,15.10
2019,05,29,09,28,15.10
2019,05,29,09,29,15.10
2019,05,29,09,30,15.00
2019,05,29,09,31,15.00
2019,05,29,09,32,15.10
2019,05,29,09,33,15.20
2019,05,29,09,34,15.30
2019,05,29,09,35,15.30
2019,05,29,09,36,15.30
2019,05,29,09,37,15.30
2019,05,29,09,38,15.30
2019,05,29,09,39,15.30
2019,05,29,09,40,15.40
2019,05,29,09,41,15.50
2019,05,29,09,42,15.60
2019,05,29,09,43,15.70
2019,05,29,09,44,15.90
2019,05,29,09,45,16.00
2019,05,29,09,46,16.10
2019,05,29,09,47,16.30
2019,05,29,09,48,16.40
2019,05,29,09,49,16.50
2019,05,29,09,50,16.60
2019,05,29,09,51,16.70
2019,05,29,09,52,16.70
2019,05,29,09,53,16.50
2019,05,29,09,54,16.30
2019,05,29,09,55,16.20
2019,05,29,09,56,16.10
2019,05,29,09,57,16.10
2019,05,29,09,58,16.10
2019,05,29,09,59,16.10
2019,05,29,10,00,16.20
2019,05,29,10,01,16.30
2019,05,29,10,02,16.30
2019,05,29,10,03,16.30
2019,05,29,10,04,16.20
2019,05,29,10,05,16.20
2019,05,29,10,06,16.00
2019,05,29,10,07,15.90
2019,05,29,10,08,15.90
2019,05,29,10,09,15.80
2019,05,29,10,10,15.70
2019,05,29,10,11,15.70
2019,05,29,10,12,15.70
2019,05,29,10,13,15.70
2019,05,29,10,14,15.70
2019,05,29,10,15,15.80
2019,05,29,10,16,15.90
2019,05,29,10,17,16.10
2019,05,29,10,18,16.20
2019,05,29,10,19,16.20
2019,05,29,10,20,16.30
2019,05,29,10,21,16.30
2019,05,29,10,22,16.30
2019,05,29,10,23,16.30
2019,05,29,10,24,16.20
2019,05,29,10,25,16.20
2019,05,29,10,26,16.20
2019,05,29,10,27,16.30
2019,05,29,10,28,16.30
2019,05,29,10,29,16.30
2019,05,29,10,30,16.20
2019,05,29,10,31,16.30
2019,05,29,10,32,16.30
2019,05,29,10,33,16.30
2019,05,29,10,34,16.20
2019,05,29,10,35,16.20
2019,05,29,10,36,16.10
2019,05,29,10,37,16.10
2019,05,29,10,38,16.10
2019,05,29,10,39,16.10
2019,05,29,10,40,16.20
2019,05,29,10,41,16.20
2019,05,29,10,42,16.20
2019,05,29,10,43,16.20
2019,05,29,10,44,16.20
2019,05,29,10,45,16.20
2019,05,29,10,46,16.30
2019,05,29,10,47,16.30
2019,05,29,10,48,16.30
2019,05,29,10,49,16.40
2019,05,29,10,50,16.40
2019,05,29,10,51,16.30
2019,05,29,10,52,16.20
2019,05,29,10,53,16.20
2019,05,29,10,54,16.20
2019,05,29,10,55,16.30
2019,05,29,10,56,16.30
2019,05,29,10,57,16.30
2019,05,29,10,58,16.30
2019,05,29,10,59,16.40
2019,05,29,11,00,16.40
2019,05,29,11,01,16.40
2019,05,29,11,02,16.50
2019,05,29,11,03,16.50
2019,05,29,11,04,16.60
2019,05,29,11,05,16.70
2019,05,29,11,06,16.70
2019,05,29,11,07,16.70
2019,05,29,11,08,16.80
2019,05,29,11,09,16.80
2019,05,29,11,10,16.70
2019,05,29,11,11,16.70
2019,05,29,11,12,16.70
2019,05,29,11,13,16.60
2019,05,29,11,14,16.60
2019,05,29,11,15,16.60
2019,05,29,11,16,16.60
2019,05,29,11,17,16.60
2019,05,29,11,18,16.60
2019,05,29,11,19,16.50
2019,05,29,11,20,16.50
2019,05,29,11,21,16.60
2019,05,29,11,22,16.60
2019,05,29,11,23,16.60
2019,05,29,11,24,16.60
2019,05,29,11,25,16.60
2019,05,29,11,26,16.60
2019,05,29,11,27,16.60
2019,05,29,11,28,16.70
2019,05,29,11,29,16.70
2019,05,29,11,30,16.70
2019,05,29,11,31,16.70
2019,05,29,11,32,16.70
2019,05,29,11,33,16.70
2019,05,29,11,34,16.70
2019,05,29,11,35,16.80
2019,05,29,11,36,16.90
2019,05,29,11,37,16.90
2019,05,29,11,38,16.90
2019,05,29,11,39,16.80
2019,05,29,11,40,16.80
2019,05,29,11,41,16.80
2019,05,29,11,42,16.70
2019,05,29,11,43,16.40
2019,05,29,11,44,16.30
2019,05,29,11,45,16.20
2019,05,29,11,46,16.20
2019,05,29,11,47,16.20
2019,05,29,11,48,16.20
2019,05,29,11,49,16.30
2019,05,29,11,50,16.30
2019,05,29,11,51,16.30
2019,05,29,11,52,16.40
2019,05,29,11,53,16.40
2019,05,29,11,54,16.40
2019,05,29,11,55,16.30
2019,05,29,11,56,16.30
2019,05,29,11,57,16.30
2019,05,29,11,58,16.40
2019,05,29,11,59,16.40
2019,05,29,12,00,16.40
2019,05,29,12,01,16.40
2019,05,29,12,02,16.40
2019,05,29,12,03,16.40
2019,05,29,12,04,16.40
2019,05,29,12,05,16.40
2019,05,29,12,06,16.30
2019,05,29,12,07,16.30
2019,05,29,12,08,16.20
2019,05,29,12,09,16.10
2019,05,29,12,10,16.00
2019,05,29,12,11,15.80
2019,05,29,12,12,15.70
2019,05,29,12,13,15.60
2019,05,29,12,14,15.60
2019,05,29,12,15,15.60
2019,05,29,12,16,15.60
2019,05,29,12,17,15.50
2019,05,29,12,18,15.50
2019,05,29,12,19,15.60
2019,05,29,12,20,15.60
2019,05,29,12,21,15.60
2019,05,29,12,22,15.70
2019,05,29,12,23,15.80
2019,05,29,12,24,15.80
2019,05,29,12,25,15.80
2019,05,29,12,26,15.80
2019,05,29,12,27,15.80
2019,05,29,12,28,15.80
2019,05,29,12,29,15.70
2019,05,29,12,30,15.60
2019,05,29,12,31,15.60
2019,05,29,12,32,15.70
2019,05,29,12,33,15.70
2019,05,29,12,34,15.60
2019,05,29,12,35,15.50
2019,05,29,12,36,15.50
2019,05,29,12,37,15.50
2019,05,29,12,38,15.40
2019,05,29,12,39,15.40
2019,05,29,12,40,15.40
2019,05,29,12,41,15.30
2019,05,29,12,42,15.30
2019,05,29,12,43,15.30
2019,05,29,12,44,15.30
2019,05,29,12,45,15.20
2019,05,29,12,46,15.20
2019,05,29,12,47,15.10
2019,05,29,12,48,15.10
2019,05,29,12,49,15.10
2019,05,29,12,50,15.20
2019,05,29,12,51,15.20
2019,05,29,12,52,15.30
2019,05,29,12,53,15.50
2019,05,29,12,54,15.50
2019,05,29,12,55,15.60
2019,05,29,12,56,15.70
2019,05,29,12,57,15.70
2019,05,29,12,58,15.80
2019,05,29,12,59,15.90
2019,05,29,13,00,15.90
2019,05,29,13,01,15.90
2019,05,29,13,02,16.00
2019,05,29,13,03,16.00
2019,05,29,13,04,16.00
2019,05,29,13,05,16.10
2019,05,29,13,06,16.00
2019,05,29,13,07,16.00
2019,05,29,13,08,15.90
2019,05,29,13,09,15.80
2019,05,29,13,10,15.80
2019,05,29,13,11,15.80
2019,05,29,13,12,15.80
2019,05,29,13,13,15.70
2019,05,29,13,14,15.70
2019,05,29,13,15,15.60
2019,05,29,13,16,15.50
2019,05,29,13,17,15.40
2019,05,29,13,18,15.30
2019,05,29,13,19,15.20
2019,05,29,13,20,15.10
2019,05,29,13,21,15.10
2019,05,29,13,22,15.20
2019,05,29,13,23,15.20
2019,05,29,13,24,15.30
2019,05,29,13,25,15.40
2019,05,29,13,26,15.50
2019,05,29,13,27,15.70
2019,05,29,13,28,15.80
2019,05,29,13,29,15.80
2019,05,29,13,30,15.80
2019,05,29,13,31,15.80
2019,05,29,13,32,15.60
2019,05,29,13,33,15.70
2019,05,29,13,34,15.70
2019,05,29,13,35,15.80
2019,05,29,13,36,15.80
2019,05,29,13,37,15.90
2019,05,29,13,38,15.90
2019,05,29,13,39,16.00
2019,05,29,13,40,16.10
2019,05,29,13,41,16.00
2019,05,29,13,42,16.00
2019,05,29,13,43,16.10
2019,05,29,13,44,16.20
2019,05,29,13,45,16.40
2019,05,29,13,46,16.50
2019,05,29,13,47,16.50
2019,05,29,13,48,16.60
2019,05,29,13,49,16.60
2019,05,29,13,50,16.70
2019,05,29,13,51,16.80
2019,05,29,13,52,16.80
2019,05,29,13,53,16.80
2019,05,29,13,54,16.80
2019,05,29,13,55,16.70
2019,05,29,13,56,16.80
2019,05,29,13,57,16.80
2019,05,29,13,58,16.90
2019,05,29,13,59,16.90
2019,05,29,14,00,16.80
2019,05,29,14,01,16.80
2019,05,29,14,02,16.80
2019,05,29,14,03,16.80
2019,05,29,14,04,16.90
2019,05,29,14,05,16.90
2019,05,29,14,06,16.90
2019,05,29,14,07,16.90
2019,05,29,14,08,16.80
2019,05,29,14,09,16.80
2019,05,29,14,10,16.80
2019,05,29,14,11,16.70
2019,05,29,14,12,16.60
2019,05,29,14,13,16.60
2019,05,29,14,14,16.60
2019,05,29,14,15,16.60
2019,05,29,14,16,16.70
2019,05,29,14,17,16.70
2019,05,29,14,18,16.70
2019,05,29,14,19,16.70
2019,05,29,14,20,16.70
2019,05,29,14,21,16.80
2019,05,29,14,22,16.90
2019,05,29,14,23,17.10
2019,05,29,14,24,17.20
2019,05,29,14,25,17.20
2019,05,29,14,26,17.30
2019,05,29,14,27,17.40
2019,05,29,14,28,17.40
2019,05,29,14,29,17.30
2019,05,29,14,30,17.40
2019,05,29,14,31,17.40
2019,05,29,14,32,17.50
2019,05,29,14,33,17.50
2019,05,29,14,34,17.60
2019,05,29,14,35,17.70
2019,05,29,14,36,17.70
2019,05,29,14,37,17.70
2019,05,29,14,38,17.70
2019,05,29,14,39,17.70
2019,05,29,14,40,17.70
2019,05,29,14,41,17.70
2019,05,29,14,42,17.50
2019,05,29,14,43,17.30
2019,05,29,14,44,17.20
2019,05,29,14,45,17.20
2019,05,29,14,46,17.10
2019,05,29,14,47,17.10
2019,05,29,14,48,17.20
2019,05,29,14,49,17.20
2019,05,29,14,50,17.20
2019,05,29,14,51,17.20
2019,05,29,14,52,17.20
2019,05,29,14,53,17.10
2019,05,29,14,54,17.10
2019,05,29,14,55,17.10
2019,05,29,14,56,17.20
2019,05,29,14,57,17.20
2019,05,29,14,58,17.20
2019,05,29,14,59,17.30
2019,05,29,15,00,17.40
2019,05,29,15,01,17.50
2019,05,29,15,02,17.60
2019,05,29,15,03,17.70
2019,05,29,15,04,17.70
2019,05,29,15,05,17.70
2019,05,29,15,06,17.70
2019,05,29,15,07,17.70
2019,05,29,15,08,17.70
2019,05,29,15,09,17.70
2019,05,29,15,10,17.60
2019,05,29,15,11,17.70
2019,05,29,15,12,17.70
2019,05,29,15,13,17.60
2019,05,29,15,14,17.70
2019,05,29,15,15,17.70
2019,05,29,15,16,17.70
2019,05,29,15,17,17.80
2019,05,29,15,18,17.90
2019,05,29,15,19,17.90
2019,05,29,15,20,17.90
2019,05,29,15,21,17.90
2019,05,29,15,22,18.00
2019,05,29,15,23,18.10
2019,05,29,15,24,18.10
2019,05,29,15,25,18.10
2019,05,29,15,26,18.10
2019,05,29,15,27,18.20
2019,05,29,15,28,18.30
2019,05,29,15,29,18.30
2019,05,29,15,30,18.30
2019,05,29,15,31,18.30
2019,05,29,15,32,18.30
2019,05,29,15,33,18.30
2019,05,29,15,34,18.40
2019,05,29,15,35,18.40
2019,05,29,15,36,18.40
2019,05,29,15,37,18.40
2019,05,29,15,38,18.40
2019,05,29,15,39,18.30
2019,05,29,15,40,18.40
2019,05,29,15,41,18.40
2019,05,29,15,42,18.40
2019,05,29,15,43,18.40
2019,05,29,15,44,18.40
2019,05,29,15,45,18.40
2019,05,29,15,46,18.50
2019,05,29,15,47,18.50
2019,05,29,15,48,18.60
2019,05,29,15,49,18.60
2019,05,29,15,50,18.60
2019,05,29,15,51,18.60
2019,05,29,15,52,18.60
2019,05,29,15,53,18.60
2019,05,29,15,54,18.60
2019,05,29,15,55,18.70
2019,05,29,15,56,18.70
2019,05,29,15,57,18.80
2019,05,29,15,58,18.90
2019,05,29,15,59,19.00
2019,05,29,16,00,19.10
2019,05,29,16,01,19.10
2019,05,29,16,02,19.20
2019,05,29,16,03,19.20
2019,05,29,16,04,19.20
2019,05,29,16,05,19.20
2019,05,29,16,06,19.20
2019,05,29,16,07,19.30
2019,05,29,16,08,19.40
2019,05,29,16,09,19.40
2019,05,29,16,10,19.40
2019,05,29,16,11,19.40
2019,05,29,16,12,19.40
2019,05,29,16,13,19.50
2019,05,29,16,14,19.70
2019,05,29,16,15,19.60
2019,05,29,16,16,19.50
2019,05,29,16,17,19.50
2019,05,29,16,18,19.40
2019,05,29,16,19,19.30
2019,05,29,16,20,19.30
2019,05,29,16,21,19.40
2019,05,29,16,22,19.50
2019,05,29,16,23,19.60
2019,05,29,16,24,19.60
2019,05,29,16,25,19.60
2019,05,29,16,26,19.50
2019,05,29,16,27,19.50
2019,05,29,16,28,19.50
2019,05,29,16,29,19.40
2019,05,29,16,30,19.50
2019,05,29,16,31,19.50
2019,05,29,16,32,19.60
2019,05,29,16,33,19.50
2019,05,29,16,34,19.40
2019,05,29,16,35,19.40
2019,05,29,16,36,19.40
2019,05,29,16,37,19.40
2019,05,29,16,38,19.30
2019,05,29,16,39,19.30
2019,05,29,16,40,19.30
2019,05,29,16,41,19.20
2019,05,29,16,42,19.20
2019,05,29,16,43,19.40
2019,05,29,16,44,19.40
2019,05,29,16,45,19.40
2019,05,29,16,46,19.50
2019,05,29,16,47,19.60
2019,05,29,16,48,19.80
2019,05,29,16,49,19.90
2019,05,29,16,50,20.00
2019,05,29,16,51,20.00
2019,05,29,16,52,19.90
2019,05,29,16,53,20.00
2019,05,29,16,54,20.00
2019,05,29,16,55,20.10
2019,05,29,16,56,20.00
2019,05,29,16,57,19.90
2019,05,29,16,58,19.80
2019,05,29,16,59,19.70
2019,05,29,17,00,19.60
2019,05,29,17,01,19.60
2019,05,29,17,02,19.70
2019,05,29,17,03,19.80
2019,05,29,17,04,19.90
2019,05,29,17,05,20.00
2019,05,29,17,06,20.00
2019,05,29,17,07,20.00
2019,05,29,17,08,19.90
2019,05,29,17,09,19.90
2019,05,29,17,10,19.90
2019,05,29,17,11,19.80
2019,05,29,17,12,19.70
2019,05,29,17,13,19.60
2019,05,29,17,14,19.50
2019,05,29,17,15,19.40
2019,05,29,17,16,19.40
2019,05,29,17,17,19.40
2019,05,29,17,18,19.50
2019,05,29,17,19,19.70